Radiation Dose at Monitoring Post of Fukushima Daini Nuclear Power Station
Date,Time,MP-1(microSv/h),MP-2(microSv/h),MP-3(microSv/h),MP-4(microSv/h),MP-5(microSv/h),MP-6(microSv/h),MP-7(microSv/h),Wind Direction,Wind Velocity(m/s),Rain
2015/02/13,00:00,0.538,0.327,0.555,-,0.527,0.256,0.229,north,1.9,No
2015/02/13,00:10,0.536,0.328,0.555,-,0.527,0.256,0.230,north,1.2,No
2015/02/13,00:20,0.536,0.328,0.553,-,0.527,0.254,0.229,north,1.1,No
2015/02/13,00:30,0.537,0.327,0.554,-,0.529,0.257,0.229,north-northeast,0.8,No
2015/02/13,00:40,0.535,0.327,0.556,-,0.530,0.257,0.229,north-northeast,0.8,No
2015/02/13,00:50,0.537,0.327,0.555,-,0.528,0.256,0.229,north-northeast,0.9,No
2015/02/13,01:00,0.537,0.329,0.552,-,0.527,0.256,0.229,north-northeast,0.6,No
2015/02/13,01:10,0.537,0.328,0.554,-,0.528,0.256,0.229,north,0.7,No
2015/02/13,01:20,0.536,0.327,0.556,-,0.529,0.257,0.230,northwest,0.7,No
2015/02/13,01:30,0.537,0.328,0.555,-,0.528,0.257,0.230,west-southwest,0.7,No
2015/02/13,01:40,0.535,0.327,0.555,-,0.526,0.255,0.230,-,CALM,No
2015/02/13,01:50,0.537,0.328,0.555,-,0.529,0.255,0.230,-,CALM,No
2015/02/13,02:00,0.535,0.327,0.555,-,0.528,0.256,0.229,-,CALM,No
2015/02/13,02:10,0.536,0.328,0.554,-,0.526,0.256,0.230,-,CALM,No
2015/02/13,02:20,0.534,0.328,0.556,-,0.527,0.256,0.229,-,CALM,No
2015/02/13,02:30,0.535,0.329,0.554,-,0.527,0.256,0.230,south-southwest,1.3,No
2015/02/13,02:40,0.535,0.329,0.554,-,0.529,0.256,0.229,southwest,2.2,No
2015/02/13,02:50,0.536,0.328,0.554,-,0.528,0.255,0.229,southwest,2.1,No
2015/02/13,03:00,0.537,0.327,0.556,-,0.526,0.255,0.230,south-southwest,0.6,No
2015/02/13,03:10,0.537,0.329,0.553,-,0.528,0.256,0.230,south-southwest,1.7,No
2015/02/13,03:20,0.538,0.327,0.553,-,0.529,0.256,0.229,southwest,2.4,No
2015/02/13,03:30,0.538,0.328,0.556,-,0.529,0.256,0.229,west-northwest,2.0,No
2015/02/13,03:40,0.537,0.327,0.556,-,0.528,0.255,0.230,west,2.2,No
2015/02/13,03:50,0.535,0.327,0.554,-,0.530,0.255,0.229,west-southwest,2.0,No
2015/02/13,04:00,0.537,0.328,0.555,-,0.529,0.257,0.230,west-southwest,2.4,No
2015/02/13,04:10,0.538,0.329,0.552,-,0.529,0.257,0.230,west-northwest,2.6,No
2015/02/13,04:20,0.535,0.329,0.557,-,0.527,0.255,0.229,west,2.6,No
2015/02/13,04:30,0.537,0.329,0.554,-,0.529,0.256,0.229,west-northwest,3.3,No
2015/02/13,04:40,0.535,0.328,0.553,-,0.529,0.256,0.229,west-northwest,8.5,No
2015/02/13,04:50,0.537,0.328,0.554,-,0.529,0.255,0.229,west-northwest,10.8,No
2015/02/13,05:00,0.535,0.329,0.556,-,0.529,0.257,0.228,west-northwest,10.5,No
2015/02/13,05:10,0.538,0.328,0.556,-,0.530,0.256,0.229,west-northwest,11.7,No
2015/02/13,05:20,0.539,0.329,0.555,-,0.531,0.257,0.229,west-northwest,10.5,No
2015/02/13,05:30,0.540,0.331,0.556,-,0.530,0.258,0.230,west-northwest,9.9,No
2015/02/13,05:40,0.540,0.331,0.560,-,0.530,0.259,0.231,west-northwest,7.6,No
2015/02/13,05:50,0.539,0.330,0.557,-,0.532,0.257,0.231,northwest,5.2,No
2015/02/13,06:00,0.541,0.329,0.556,-,0.532,0.257,0.230,west-northwest,5.7,No
2015/02/13,06:10,0.541,0.330,0.556,-,0.531,0.258,0.230,west-northwest,7.7,No
2015/02/13,06:20,0.541,0.329,0.559,-,0.530,0.259,0.230,west-northwest,5.7,No
2015/02/13,06:30,0.539,0.330,0.559,-,0.530,0.258,0.229,northwest,3.2,No
2015/02/13,06:40,0.540,0.330,0.558,-,0.533,0.257,0.230,northwest,4.0,No
2015/02/13,06:50,0.541,0.329,0.558,-,0.533,0.257,0.230,northwest,6.2,No
2015/02/13,07:00,0.539,0.330,0.558,-,0.530,0.258,0.231,west-northwest,7.3,No
2015/02/13,07:10,0.540,0.331,0.560,-,0.530,0.258,0.229,west-northwest,6.4,No
2015/02/13,07:20,0.540,0.329,0.558,-,0.531,0.257,0.231,west,7.5,No
2015/02/13,07:30,0.542,0.330,0.556,-,0.531,0.257,0.230,west-northwest,7.0,No
2015/02/13,07:40,0.540,0.330,0.555,-,0.532,0.256,0.230,west-northwest,7.0,No
2015/02/13,07:50,0.539,0.330,0.557,-,0.530,0.257,0.230,west-northwest,8.6,No
2015/02/13,08:00,0.540,0.329,0.559,-,0.532,0.257,0.230,northwest,3.7,No
2015/02/13,08:10,0.541,0.329,0.556,-,0.531,0.257,0.231,north-northwest,3.8,No
2015/02/13,08:20,0.540,0.329,0.557,-,0.534,0.257,0.230,west-northwest,10.0,No
2015/02/13,08:30,0.538,0.329,0.556,-,0.529,0.256,0.229,west,10.7,No
2015/02/13,08:40,0.541,0.329,0.558,-,0.531,0.257,0.229,northwest,5.5,No
2015/02/13,08:50,0.541,0.328,0.557,-,0.532,0.256,0.230,west-northwest,8.6,No
2015/02/13,09:00,0.540,0.328,0.558,-,0.533,0.257,0.228,west-northwest,4.0,No
2015/02/13,09:10,0.539,0.328,0.557,-,0.530,0.258,0.229,west,11.1,No
2015/02/13,09:20,0.541,0.330,0.559,-,0.531,0.257,0.229,west-northwest,10.2,No
2015/02/13,09:30,0.540,0.329,0.558,-,0.531,0.257,0.231,northwest,6.4,No
2015/02/13,09:40,0.540,0.327,0.558,-,0.535,0.257,0.230,north-northwest,3.7,No
2015/02/13,09:50,0.539,0.329,0.558,-,0.533,0.258,0.229,west-northwest,8.1,No
2015/02/13,10:00,0.541,0.330,0.558,-,0.532,0.258,0.229,west-northwest,8.1,No
2015/02/13,10:10,0.538,0.329,0.559,-,0.532,0.258,0.229,west,14.9,No
2015/02/13,10:20,0.538,0.328,0.556,-,0.533,0.257,0.231,west,7.6,No
2015/02/13,10:30,0.541,0.329,0.557,-,0.531,0.257,0.229,west,11.1,No
2015/02/13,10:40,0.539,0.329,0.558,-,0.534,0.257,0.230,west,9.1,No
2015/02/13,10:50,0.540,0.329,0.560,-,0.533,0.257,0.230,west,9.8,No
2015/02/13,11:00,0.540,0.330,0.558,-,0.531,0.257,0.230,west,7.5,No
2015/02/13,11:10,0.539,0.332,0.557,-,0.534,0.257,0.231,west-northwest,8.2,No
2015/02/13,11:20,0.540,0.329,0.558,-,0.531,0.258,0.229,west-northwest,8.1,No
2015/02/13,11:30,0.540,0.330,0.556,-,0.532,0.257,0.231,west,10.3,No
2015/02/13,11:40,0.539,0.331,0.556,-,0.534,0.257,0.230,west,10.6,No
2015/02/13,11:50,0.542,0.330,0.559,-,0.533,0.258,0.231,west,7.9,No
2015/02/13,12:00,0.540,0.330,0.556,-,0.537,0.258,0.230,west-northwest,5.9,No
2015/02/13,12:10,0.538,0.330,0.555,-,0.533,0.258,0.231,west,9.7,No
2015/02/13,12:20,0.541,0.330,0.559,-,0.533,0.258,0.230,west,7.8,No
2015/02/13,12:30,0.538,0.333,0.556,-,0.535,0.257,0.230,west,10.1,No
2015/02/13,12:40,0.542,0.330,0.556,-,0.533,0.258,0.230,west,8.7,No
2015/02/13,12:50,0.541,0.329,0.560,-,0.537,0.257,0.231,west,10.5,No
2015/02/13,13:00,0.541,0.331,0.557,-,0.534,0.257,0.230,west,6.5,No
2015/02/13,13:10,0.543,0.331,0.559,-,0.535,0.258,0.231,west,9.9,No
2015/02/13,13:20,0.545,0.329,0.560,-,0.537,0.257,0.230,west-northwest,9.0,No
2015/02/13,13:30,0.542,0.330,0.557,-,0.536,0.257,0.232,west,8.5,No
2015/02/13,13:40,0.542,0.331,0.561,-,0.538,0.257,0.230,west-northwest,6.8,No
2015/02/13,13:50,0.544,0.330,0.558,-,0.535,0.259,0.231,west-northwest,4.4,No
2015/02/13,14:00,0.544,0.331,0.560,-,0.536,0.257,0.231,west-northwest,4.2,No
2015/02/13,14:10,0.541,0.331,0.561,-,0.537,0.258,0.232,west-northwest,2.2,No
2015/02/13,14:20,0.545,0.331,0.558,-,0.534,0.259,0.231,northwest,4.6,No
2015/02/13,14:30,0.544,0.331,0.558,-,0.532,0.258,0.232,west-northwest,8.4,No
2015/02/13,14:40,0.541,0.332,0.561,-,0.534,0.257,0.233,west,5.2,No
2015/02/13,14:50,0.542,0.329,0.562,-,0.534,0.258,0.231,west-northwest,4.3,No
2015/02/13,15:00,0.542,0.329,0.561,-,0.534,0.256,0.232,west-northwest,4.8,No
2015/02/13,15:10,0.541,0.331,0.562,-,0.535,0.258,0.232,west-northwest,6.3,No
2015/02/13,15:20,0.542,0.332,0.561,-,0.534,0.259,0.231,northwest,9.5,No
2015/02/13,15:30,0.543,0.330,0.559,-,0.533,0.257,0.231,northwest,8.6,No
2015/02/13,15:40,0.543,0.332,0.560,-,0.534,0.258,0.231,west-northwest,6.2,No
2015/02/13,15:50,0.543,0.333,0.561,-,0.535,0.258,0.231,west-northwest,7.1,No
2015/02/13,16:00,0.541,0.332,0.561,-,0.534,0.257,0.231,northwest,6.2,No
2015/02/13,16:10,0.544,0.331,0.561,-,0.534,0.257,0.231,north-northwest,2.1,No
2015/02/13,16:20,0.543,0.332,0.560,-,0.533,0.257,0.232,north-northeast,1.2,No
2015/02/13,16:30,0.544,0.331,0.559,-,0.536,0.258,0.232,north,2.3,No
2015/02/13,16:40,0.543,0.331,0.561,-,0.532,0.257,0.232,northwest,2.1,No
2015/02/13,16:50,0.541,0.331,0.559,-,0.534,0.258,0.230,north,2.2,No
2015/02/13,17:00,0.543,0.332,0.560,-,0.533,0.257,0.232,north,0.9,No
2015/02/13,17:10,0.542,0.331,0.560,-,0.534,0.258,0.232,west-northwest,1.5,No
2015/02/13,17:20,0.541,0.331,0.560,-,0.534,0.259,0.231,west,3.9,No
2015/02/13,17:30,0.542,0.332,0.560,-,0.535,0.258,0.231,north-northwest,2.5,No
2015/02/13,17:40,0.542,0.331,0.562,-,0.534,0.259,0.231,north,2.8,No
2015/02/13,17:50,0.543,0.331,0.560,-,0.533,0.258,0.231,northwest,2.5,No
2015/02/13,18:00,0.541,0.332,0.562,-,0.533,0.259,0.231,north,1.6,No
2015/02/13,18:10,0.544,0.332,0.560,-,0.535,0.258,0.232,west-northwest,0.6,No
2015/02/13,18:20,0.542,0.331,0.559,-,0.535,0.259,0.233,west-northwest,1.1,No
2015/02/13,18:30,0.541,0.331,0.562,-,0.534,0.257,0.233,north-northeast,0.6,No
2015/02/13,18:40,0.542,0.331,0.560,-,0.533,0.258,0.231,southwest,0.6,No
2015/02/13,18:50,0.541,0.330,0.560,-,0.532,0.258,0.232,-,CALM,No
2015/02/13,19:00,0.540,0.332,0.559,-,0.534,0.258,0.232,west,2.1,No
2015/02/13,19:10,0.542,0.330,0.561,-,0.532,0.258,0.233,south-southwest,1.4,No
2015/02/13,19:20,0.542,0.332,0.560,-,0.532,0.259,0.231,north-northeast,0.5,No
2015/02/13,19:30,0.541,0.332,0.561,-,0.535,0.258,0.232,northeast,0.7,No
2015/02/13,19:40,0.541,0.331,0.561,-,0.533,0.258,0.232,west,5.9,No
2015/02/13,19:50,0.541,0.332,0.561,-,0.533,0.258,0.232,west-northwest,5.0,No
2015/02/13,20:00,0.542,0.330,0.562,-,0.534,0.258,0.232,west-northwest,6.1,No
2015/02/13,20:10,0.541,0.331,0.560,-,0.534,0.258,0.232,west-northwest,3.3,No
2015/02/13,20:20,0.542,0.331,0.562,-,0.535,0.258,0.233,west-northwest,3.4,No
2015/02/13,20:30,0.541,0.331,0.559,-,0.533,0.258,0.232,west,7.6,No
2015/02/13,20:40,0.541,0.332,0.561,-,0.535,0.258,0.231,west,5.7,No
2015/02/13,20:50,0.542,0.331,0.559,-,0.535,0.258,0.232,north-northwest,3.6,No
2015/02/13,21:00,0.541,0.332,0.563,-,0.533,0.258,0.231,north,1.6,No
2015/02/13,21:10,0.542,0.331,0.561,-,0.533,0.258,0.231,north,3.0,No
2015/02/13,21:20,0.541,0.330,0.563,-,0.534,0.258,0.232,northwest,2.8,No
2015/02/13,21:30,0.540,0.332,0.562,-,0.534,0.259,0.232,northwest,6.4,No
2015/02/13,21:40,0.541,0.332,0.560,-,0.532,0.259,0.231,north-northwest,3.0,No
2015/02/13,21:50,0.541,0.332,0.562,-,0.535,0.258,0.232,northwest,2.2,No
2015/02/13,22:00,0.542,0.331,0.561,-,0.535,0.258,0.232,northwest,3.3,No
2015/02/13,22:10,0.540,0.329,0.563,-,0.534,0.259,0.233,north-northwest,2.7,No
2015/02/13,22:20,0.541,0.331,0.561,-,0.533,0.258,0.232,north-northwest,4.2,No
2015/02/13,22:30,0.540,0.332,0.561,-,0.534,0.258,0.231,north-northwest,2.4,No
2015/02/13,22:40,0.539,0.330,0.559,-,0.535,0.259,0.230,northwest,3.5,No
2015/02/13,22:50,0.542,0.330,0.561,-,0.533,0.258,0.231,north-northeast,3.3,No
2015/02/13,23:00,0.539,0.331,0.561,-,0.534,0.259,0.232,north-northwest,4.7,No
2015/02/13,23:10,0.542,0.330,0.562,-,0.533,0.258,0.232,north-northwest,2.9,No
2015/02/13,23:20,0.543,0.331,0.562,-,0.533,0.259,0.230,northwest,5.5,No
2015/02/13,23:30,0.542,0.331,0.560,-,0.536,0.259,0.232,north,5.3,No
2015/02/13,23:40,0.542,0.330,0.563,-,0.535,0.257,0.231,north,3.3,No
2015/02/13,23:50,0.543,0.330,0.561,-,0.534,0.258,0.232,northwest,4.4,No
